Location: Poughquag
(41.6090°N, 73.6820°W)
Time: 02:57:02
(UTC-04:00)

S-56A Canister/Altair - Pass Details

Date: 30 May 2020
Orbit: 633 x 2499 km, 38.9° (Epoch: 06 July)

Event Time Altitude Azimuth Distance (km) Brightness Sun altitude
Rises 07:44:57 0° 263° (W) 3,752 10.5 23.9°
Reaches altitude 10° 07:47:13 10° 262° (W) 2,990 10.1 24.3°
Maximum altitude 07:54:43 76° 178° (S) 1,527 9.5 25.7°
Drops below altitude 10° 08:06:21 10° 95° (E) 4,487 13.1 27.9°
Sets 08:10:29 0° 95° (E) 5,724 13.2 28.6°
